Time,TemperatureF,DewpointF,PressureIn,WindDirection,WindDirectionDegrees,WindSpeedMPH,WindSpeedGustMPH,Humidity,HourlyPrecipIn,Conditions,Clouds,dailyrainin,SoftwareType,DateUTC
2013-08-07 00:00:00,65.2,49.6,29.88,SSE,158,0.0,0.0,57,0.00,,,0.00,WeatherCatV1.15B25,2013-08-07 07:00:00,
2013-08-07 00:05:00,65.2,49.6,29.88,SSE,158,0.0,0.0,57,0.00,,,0.00,WeatherCatV1.15B25,2013-08-07 07:05:00,
2013-08-07 00:10:00,65.2,49.6,29.88,SSE,158,0.0,0.0,57,0.00,,,0.00,WeatherCatV1.15B25,2013-08-07 07:10:00,
2013-08-07 00:15:00,65.2,49.6,29.88,SSE,158,0.0,0.0,57,0.00,,,0.00,WeatherCatV1.15B25,2013-08-07 07:15:00,
2013-08-07 00:20:00,65.2,49.6,29.88,SSE,158,0.0,0.0,57,0.00,,,0.00,WeatherCatV1.15B25,2013-08-07 07:20:00,
2013-08-07 00:25:00,65.2,49.6,29.88,SSE,158,0.0,0.0,57,0.00,,,0.00,WeatherCatV1.15B25,2013-08-07 07:25:00,
2013-08-07 00:30:00,65.2,49.6,29.88,SSE,158,0.0,0.0,57,0.00,,,0.00,WeatherCatV1.15B25,2013-08-07 07:30:00,
2013-08-07 00:35:00,65.3,48.7,29.89,SSE,158,0.0,0.0,55,0.00,,,0.00,WeatherCatV1.15B25,2013-08-07 07:35:00,
2013-08-07 00:40:00,65.3,48.7,29.89,SSE,158,0.0,0.0,55,0.00,,,0.00,WeatherCatV1.15B25,2013-08-07 07:40:00,
2013-08-07 00:45:00,65.3,48.7,29.89,SSE,158,0.0,0.0,55,0.00,,,0.00,WeatherCatV1.15B25,2013-08-07 07:45:00,
2013-08-07 00:50:00,65.3,48.7,29.89,SSE,158,0.0,0.0,55,0.00,,,0.00,WeatherCatV1.15B25,2013-08-07 07:50:00,
2013-08-07 00:55:00,65.3,48.7,29.89,SSE,158,0.0,0.0,55,0.00,,,0.00,WeatherCatV1.15B25,2013-08-07 07:55:00,
2013-08-07 01:00:00,65.3,48.7,29.89,SSE,158,0.0,0.0,55,0.00,,,0.00,WeatherCatV1.15B25,2013-08-07 08:00:00,
2013-08-07 01:05:00,65.3,48.7,29.89,SSE,158,0.0,0.0,55,0.00,,,0.00,WeatherCatV1.15B25,2013-08-07 08:05:00,
2013-08-07 01:10:00,65.3,48.7,29.89,SSE,158,0.0,0.0,55,0.00,,,0.00,WeatherCatV1.15B25,2013-08-07 08:10:00,
2013-08-07 01:15:00,65.3,48.7,29.89,SSE,158,0.0,0.0,55,0.00,,,0.00,WeatherCatV1.15B25,2013-08-07 08:15:00,
2013-08-07 01:20:00,65.3,48.7,29.89,SSE,158,0.0,0.0,55,0.00,,,0.00,WeatherCatV1.15B25,2013-08-07 08:20:00,
2013-08-07 01:25:00,65.3,48.7,29.89,SSE,158,0.0,0.0,55,0.00,,,0.00,WeatherCatV1.15B25,2013-08-07 08:25:00,
2013-08-07 01:30:00,63.6,48.5,29.89,SE,135,0.0,1.0,58,0.00,,,0.00,WeatherCatV1.15B25,2013-08-07 08:30:00,
2013-08-07 01:35:00,63.6,48.5,29.89,SE,135,0.0,1.0,58,0.00,,,0.00,WeatherCatV1.15B25,2013-08-07 08:35:00,
2013-08-07 01:40:00,63.6,48.5,29.89,SE,135,0.0,1.0,58,0.00,,,0.00,WeatherCatV1.15B25,2013-08-07 08:40:00,
2013-08-07 01:45:00,63.6,48.5,29.89,SE,135,0.0,1.0,58,0.00,,,0.00,WeatherCatV1.15B25,2013-08-07 08:45:00,
2013-08-07 01:50:00,63.6,48.5,29.89,SE,135,0.0,1.0,58,0.00,,,0.00,WeatherCatV1.15B25,2013-08-07 08:50:00,
2013-08-07 01:55:00,63.6,48.5,29.89,SE,135,0.0,1.0,58,0.00,,,0.00,WeatherCatV1.15B25,2013-08-07 08:55:00,
2013-08-07 02:00:00,63.6,48.5,29.89,SE,135,0.0,1.0,58,0.00,,,0.00,WeatherCatV1.15B25,2013-08-07 09:00:00,
2013-08-07 02:05:00,63.6,48.5,29.89,SE,135,0.0,1.0,58,0.00,,,0.00,WeatherCatV1.15B25,2013-08-07 09:05:00,
2013-08-07 02:10:00,63.6,48.5,29.89,SE,135,0.0,1.0,58,0.00,,,0.00,WeatherCatV1.15B25,2013-08-07 09:10:00,
2013-08-07 02:15:00,63.6,48.5,29.89,SE,135,0.0,1.0,58,0.00,,,0.00,WeatherCatV1.15B25,2013-08-07 09:15:00,
2013-08-07 02:20:00,63.6,48.5,29.89,SE,135,0.0,1.0,58,0.00,,,0.00,WeatherCatV1.15B25,2013-08-07 09:20:00,
2013-08-07 02:25:00,63.6,48.5,29.89,SE,135,0.0,1.0,58,0.00,,,0.00,WeatherCatV1.15B25,2013-08-07 09:25:00,
2013-08-07 02:30:00,63.6,48.5,29.89,SE,135,0.0,1.0,58,0.00,,,0.00,WeatherCatV1.15B25,2013-08-07 09:30:00,
2013-08-07 02:35:00,63.3,48.3,29.90,SE,135,0.0,0.0,58,0.00,,,0.00,WeatherCatV1.15B25,2013-08-07 09:35:00,
2013-08-07 02:40:00,63.3,48.3,29.90,SE,135,0.0,0.0,58,0.00,,,0.00,WeatherCatV1.15B25,2013-08-07 09:40:00,
2013-08-07 02:45:00,63.3,48.3,29.90,SE,135,0.0,0.0,58,0.00,,,0.00,WeatherCatV1.15B25,2013-08-07 09:45:00,
2013-08-07 02:50:00,63.3,48.3,29.90,SE,135,0.0,0.0,58,0.00,,,0.00,WeatherCatV1.15B25,2013-08-07 09:50:00,
2013-08-07 02:55:00,63.3,48.3,29.90,SE,135,0.0,0.0,58,0.00,,,0.00,WeatherCatV1.15B25,2013-08-07 09:55:00,
2013-08-07 03:00:00,63.3,48.3,29.90,SE,135,0.0,0.0,58,0.00,,,0.00,WeatherCatV1.15B25,2013-08-07 10:00:00,
2013-08-07 03:05:00,63.3,48.3,29.90,SE,135,0.0,0.0,58,0.00,,,0.00,WeatherCatV1.15B25,2013-08-07 10:05:00,
2013-08-07 03:10:00,63.3,48.3,29.90,SE,135,0.0,0.0,58,0.00,,,0.00,WeatherCatV1.15B25,2013-08-07 10:10:00,
2013-08-07 03:15:00,63.3,48.3,29.90,SE,135,0.0,0.0,58,0.00,,,0.00,WeatherCatV1.15B25,2013-08-07 10:15:00,
2013-08-07 03:20:00,63.3,48.3,29.90,SE,135,0.0,0.0,58,0.00,,,0.00,WeatherCatV1.15B25,2013-08-07 10:20:00,
2013-08-07 03:25:00,63.3,48.3,29.90,SE,135,0.0,0.0,58,0.00,,,0.00,WeatherCatV1.15B25,2013-08-07 10:25:00,
2013-08-07 03:30:00,63.3,48.3,29.90,SE,135,0.0,0.0,58,0.00,,,0.00,WeatherCatV1.15B25,2013-08-07 10:30:00,
2013-08-07 03:35:00,62.7,49.5,29.91,SE,135,0.0,0.0,62,0.00,,,0.00,WeatherCatV1.15B25,2013-08-07 10:35:00,
2013-08-07 03:40:00,62.7,49.5,29.91,SE,135,0.0,0.0,62,0.00,,,0.00,WeatherCatV1.15B25,2013-08-07 10:40:00,
2013-08-07 03:45:00,62.7,49.5,29.91,SE,135,0.0,0.0,62,0.00,,,0.00,WeatherCatV1.15B25,2013-08-07 10:45:00,
2013-08-07 03:50:00,62.7,49.5,29.91,SE,135,0.0,0.0,62,0.00,,,0.00,WeatherCatV1.15B25,2013-08-07 10:50:00,
2013-08-07 03:55:00,62.7,49.5,29.91,SE,135,0.0,0.0,62,0.00,,,0.00,WeatherCatV1.15B25,2013-08-07 10:55:00,
2013-08-07 04:00:00,62.7,49.5,29.91,SE,135,0.0,0.0,62,0.00,,,0.00,WeatherCatV1.15B25,2013-08-07 11:00:00,
2013-08-07 04:05:00,62.7,49.5,29.91,SE,135,0.0,0.0,62,0.00,,,0.00,WeatherCatV1.15B25,2013-08-07 11:05:00,
2013-08-07 04:10:00,62.7,49.5,29.91,SE,135,0.0,0.0,62,0.00,,,0.00,WeatherCatV1.15B25,2013-08-07 11:10:00,
2013-08-07 04:15:00,62.7,49.5,29.91,SE,135,0.0,0.0,62,0.00,,,0.00,WeatherCatV1.15B25,2013-08-07 11:15:00,
2013-08-07 04:20:00,62.7,49.5,29.91,SE,135,0.0,0.0,62,0.00,,,0.00,WeatherCatV1.15B25,2013-08-07 11:20:00,
2013-08-07 04:25:00,62.7,49.5,29.91,SE,135,0.0,0.0,62,0.00,,,0.00,WeatherCatV1.15B25,2013-08-07 11:25:00,
2013-08-07 04:30:00,63.9,50.2,29.90,East,90,0.0,1.0,61,0.00,,,0.00,WeatherCatV1.15B25,2013-08-07 11:30:00,
2013-08-07 04:35:00,63.9,50.2,29.90,East,90,0.0,1.0,61,0.00,,,0.00,WeatherCatV1.15B25,2013-08-07 11:35:00,
2013-08-07 04:40:00,63.9,50.2,29.90,East,90,0.0,1.0,61,0.00,,,0.00,WeatherCatV1.15B25,2013-08-07 11:40:00,
2013-08-07 04:45:00,63.9,50.2,29.90,East,90,0.0,1.0,61,0.00,,,0.00,WeatherCatV1.15B25,2013-08-07 11:45:00,
2013-08-07 04:50:00,63.9,50.2,29.90,East,90,0.0,1.0,61,0.00,,,0.00,WeatherCatV1.15B25,2013-08-07 11:50:00,
2013-08-07 04:55:00,63.9,50.2,29.90,East,90,0.0,1.0,61,0.00,,,0.00,WeatherCatV1.15B25,2013-08-07 11:55:00,
2013-08-07 05:00:00,63.9,50.2,29.90,East,90,0.0,1.0,61,0.00,,,0.00,WeatherCatV1.15B25,2013-08-07 12:00:00,
2013-08-07 05:05:00,63.9,50.2,29.90,East,90,0.0,1.0,61,0.00,,,0.00,WeatherCatV1.15B25,2013-08-07 12:05:00,
2013-08-07 05:10:00,63.9,50.2,29.90,East,90,0.0,1.0,61,0.00,,,0.00,WeatherCatV1.15B25,2013-08-07 12:10:00,
2013-08-07 05:15:00,63.9,50.2,29.90,East,90,0.0,1.0,61,0.00,,,0.00,WeatherCatV1.15B25,2013-08-07 12:15:00,
2013-08-07 05:20:00,63.9,50.2,29.90,East,90,0.0,1.0,61,0.00,,,0.00,WeatherCatV1.15B25,2013-08-07 12:20:00,
2013-08-07 05:25:00,63.9,50.2,29.90,East,90,0.0,1.0,61,0.00,,,0.00,WeatherCatV1.15B25,2013-08-07 12:25:00,
2013-08-07 05:30:00,63.9,50.2,29.90,East,90,0.0,1.0,61,0.00,,,0.00,WeatherCatV1.15B25,2013-08-07 12:30:00,
2013-08-07 05:35:00,61.2,50.1,29.89,East,90,0.0,1.0,67,0.00,,,0.00,WeatherCatV1.15B25,2013-08-07 12:35:00,
2013-08-07 05:40:00,61.2,50.1,29.89,East,90,0.0,1.0,67,0.00,,,0.00,WeatherCatV1.15B25,2013-08-07 12:40:00,
2013-08-07 05:45:00,61.2,50.1,29.89,East,90,0.0,1.0,67,0.00,,,0.00,WeatherCatV1.15B25,2013-08-07 12:45:00,
2013-08-07 05:50:00,61.2,50.1,29.89,East,90,0.0,1.0,67,0.00,,,0.00,WeatherCatV1.15B25,2013-08-07 12:50:00,
2013-08-07 05:55:00,61.2,50.1,29.89,East,90,0.0,1.0,67,0.00,,,0.00,WeatherCatV1.15B25,2013-08-07 12:55:00,
2013-08-07 06:00:00,61.2,50.1,29.89,East,90,0.0,1.0,67,0.00,,,0.00,WeatherCatV1.15B25,2013-08-07 13:00:00,
2013-08-07 06:05:00,61.2,50.1,29.89,East,90,0.0,1.0,67,0.00,,,0.00,WeatherCatV1.15B25,2013-08-07 13:05:00,
2013-08-07 06:10:00,61.2,50.1,29.89,East,90,0.0,1.0,67,0.00,,,0.00,WeatherCatV1.15B25,2013-08-07 13:10:00,
2013-08-07 06:15:00,61.2,50.1,29.89,East,90,0.0,1.0,67,0.00,,,0.00,WeatherCatV1.15B25,2013-08-07 13:15:00,
2013-08-07 06:20:00,61.2,50.1,29.89,East,90,0.0,1.0,67,0.00,,,0.00,WeatherCatV1.15B25,2013-08-07 13:20:00,
2013-08-07 06:25:00,61.2,50.1,29.89,East,90,0.0,1.0,67,0.00,,,0.00,WeatherCatV1.15B25,2013-08-07 13:25:00,
2013-08-07 06:30:00,59.1,50.5,29.90,SE,135,0.0,1.0,73,0.00,,,0.00,WeatherCatV1.15B25,2013-08-07 13:30:00,
2013-08-07 06:35:00,59.1,50.5,29.90,SE,135,0.0,1.0,73,0.00,,,0.00,WeatherCatV1.15B25,2013-08-07 13:35:00,
2013-08-07 06:40:00,59.1,50.5,29.90,SE,135,0.0,1.0,73,0.00,,,0.00,WeatherCatV1.15B25,2013-08-07 13:40:00,
2013-08-07 06:45:00,59.1,50.5,29.90,SE,135,0.0,1.0,73,0.00,,,0.00,WeatherCatV1.15B25,2013-08-07 13:45:00,
2013-08-07 06:50:00,59.1,50.5,29.90,SE,135,0.0,1.0,73,0.00,,,0.00,WeatherCatV1.15B25,2013-08-07 13:50:00,
2013-08-07 06:55:00,59.1,50.5,29.90,SE,135,0.0,1.0,73,0.00,,,0.00,WeatherCatV1.15B25,2013-08-07 13:55:00,
2013-08-07 07:00:00,59.1,50.5,29.90,SE,135,0.0,1.0,73,0.00,,,0.00,WeatherCatV1.15B25,2013-08-07 14:00:00,
2013-08-07 07:05:00,59.1,50.5,29.90,SE,135,0.0,1.0,73,0.00,,,0.00,WeatherCatV1.15B25,2013-08-07 14:05:00,
2013-08-07 07:10:00,59.1,50.5,29.90,SE,135,0.0,1.0,73,0.00,,,0.00,WeatherCatV1.15B25,2013-08-07 14:10:00,
2013-08-07 07:15:00,59.1,50.5,29.90,SE,135,0.0,1.0,73,0.00,,,0.00,WeatherCatV1.15B25,2013-08-07 14:15:00,
2013-08-07 07:20:00,59.1,50.5,29.90,SE,135,0.0,1.0,73,0.00,,,0.00,WeatherCatV1.15B25,2013-08-07 14:20:00,
2013-08-07 07:25:00,59.1,50.5,29.90,SE,135,0.0,1.0,73,0.00,,,0.00,WeatherCatV1.15B25,2013-08-07 14:25:00,
2013-08-07 07:30:00,59.1,50.5,29.90,SE,135,0.0,1.0,73,0.00,,,0.00,WeatherCatV1.15B25,2013-08-07 14:30:00,
2013-08-07 07:35:00,55.7,49.3,29.91,SE,135,0.0,0.0,79,0.00,,,0.00,WeatherCatV1.15B25,2013-08-07 14:35:00,
2013-08-07 07:40:00,55.7,49.3,29.91,SE,135,0.0,0.0,79,0.00,,,0.00,WeatherCatV1.15B25,2013-08-07 14:40:00,
2013-08-07 07:45:00,55.7,49.3,29.91,SE,135,0.0,0.0,79,0.00,,,0.00,WeatherCatV1.15B25,2013-08-07 14:45:00,
2013-08-07 07:50:00,55.7,49.3,29.91,SE,135,0.0,0.0,79,0.00,,,0.00,WeatherCatV1.15B25,2013-08-07 14:50:00,
2013-08-07 07:55:00,55.7,49.3,29.91,SE,135,0.0,0.0,79,0.00,,,0.00,WeatherCatV1.15B25,2013-08-07 14:55:00,
2013-08-07 08:00:00,55.7,49.3,29.91,SE,135,0.0,0.0,79,0.00,,,0.00,WeatherCatV1.15B25,2013-08-07 15:00:00,
2013-08-07 08:05:00,55.7,49.3,29.91,SE,135,0.0,0.0,79,0.00,,,0.00,WeatherCatV1.15B25,2013-08-07 15:05:00,
2013-08-07 08:10:00,55.7,49.3,29.91,SE,135,0.0,0.0,79,0.00,,,0.00,WeatherCatV1.15B25,2013-08-07 15:10:00,
2013-08-07 08:15:00,55.7,49.3,29.91,SE,135,0.0,0.0,79,0.00,,,0.00,WeatherCatV1.15B25,2013-08-07 15:15:00,
2013-08-07 08:20:00,55.7,49.3,29.91,SE,135,0.0,0.0,79,0.00,,,0.00,WeatherCatV1.15B25,2013-08-07 15:20:00,
2013-08-07 08:25:00,55.7,49.3,29.91,SE,135,0.0,0.0,79,0.00,,,0.00,WeatherCatV1.15B25,2013-08-07 15:25:00,
2013-08-07 08:30:00,55.7,49.3,29.91,SE,135,0.0,0.0,79,0.00,,,0.00,WeatherCatV1.15B25,2013-08-07 15:30:00,
2013-08-07 08:35:00,56.6,51.2,29.92,SE,135,0.0,0.0,82,0.00,,,0.00,WeatherCatV1.15B25,2013-08-07 15:35:00,
2013-08-07 08:40:00,56.6,51.2,29.92,SE,135,0.0,0.0,82,0.00,,,0.00,WeatherCatV1.15B25,2013-08-07 15:40:00,
2013-08-07 08:45:00,56.6,51.2,29.92,SE,135,0.0,0.0,82,0.00,,,0.00,WeatherCatV1.15B25,2013-08-07 15:45:00,
2013-08-07 08:50:00,56.6,51.2,29.92,SE,135,0.0,0.0,82,0.00,,,0.00,WeatherCatV1.15B25,2013-08-07 15:50:00,
2013-08-07 08:55:00,56.6,51.2,29.92,SE,135,0.0,0.0,82,0.00,,,0.00,WeatherCatV1.15B25,2013-08-07 15:55:00,
2013-08-07 09:00:00,56.6,51.2,29.92,SE,135,0.0,0.0,82,0.00,,,0.00,WeatherCatV1.15B25,2013-08-07 16:00:00,
2013-08-07 09:05:00,56.6,51.2,29.92,SE,135,0.0,0.0,82,0.00,,,0.00,WeatherCatV1.15B25,2013-08-07 16:05:00,
2013-08-07 09:10:00,56.6,51.2,29.92,SE,135,0.0,0.0,82,0.00,,,0.00,WeatherCatV1.15B25,2013-08-07 16:10:00,
2013-08-07 09:15:00,56.6,51.2,29.92,SE,135,0.0,0.0,82,0.00,,,0.00,WeatherCatV1.15B25,2013-08-07 16:15:00,
2013-08-07 09:20:00,56.6,51.2,29.92,SE,135,0.0,0.0,82,0.00,,,0.00,WeatherCatV1.15B25,2013-08-07 16:20:00,
2013-08-07 09:25:00,56.6,51.2,29.92,SE,135,0.0,0.0,82,0.00,,,0.00,WeatherCatV1.15B25,2013-08-07 16:25:00,
2013-08-07 09:30:00,61.4,53.0,29.93,West,270,0.0,2.0,74,0.00,,,0.00,WeatherCatV1.15B25,2013-08-07 16:30:00,
2013-08-07 09:35:00,61.4,53.0,29.93,West,270,0.0,2.0,74,0.00,,,0.00,WeatherCatV1.15B25,2013-08-07 16:35:00,
2013-08-07 09:40:00,61.4,53.0,29.93,West,270,0.0,2.0,74,0.00,,,0.00,WeatherCatV1.15B25,2013-08-07 16:40:00,
2013-08-07 09:45:00,61.4,53.0,29.93,West,270,0.0,2.0,74,0.00,,,0.00,WeatherCatV1.15B25,2013-08-07 16:45:00,
2013-08-07 09:50:00,61.4,53.0,29.93,West,270,0.0,2.0,74,0.00,,,0.00,WeatherCatV1.15B25,2013-08-07 16:50:00,
2013-08-07 09:55:00,61.4,53.0,29.93,West,270,0.0,2.0,74,0.00,,,0.00,WeatherCatV1.15B25,2013-08-07 16:55:00,
2013-08-07 10:00:00,61.4,53.0,29.93,West,270,0.0,2.0,74,0.00,,,0.00,WeatherCatV1.15B25,2013-08-07 17:00:00,
2013-08-07 10:05:00,61.4,53.0,29.93,West,270,0.0,2.0,74,0.00,,,0.00,WeatherCatV1.15B25,2013-08-07 17:05:00,
2013-08-07 10:10:00,61.4,53.0,29.93,West,270,0.0,2.0,74,0.00,,,0.00,WeatherCatV1.15B25,2013-08-07 17:10:00,
2013-08-07 10:15:00,61.4,53.0,29.93,West,270,0.0,2.0,74,0.00,,,0.00,WeatherCatV1.15B25,2013-08-07 17:15:00,
2013-08-07 10:20:00,61.4,53.0,29.93,West,270,0.0,2.0,74,0.00,,,0.00,WeatherCatV1.15B25,2013-08-07 17:20:00,
2013-08-07 10:25:00,61.4,53.0,29.93,West,270,0.0,2.0,74,0.00,,,0.00,WeatherCatV1.15B25,2013-08-07 17:25:00,
2013-08-07 10:30:00,61.4,53.0,29.93,West,270,0.0,2.0,74,0.00,,,0.00,WeatherCatV1.15B25,2013-08-07 17:30:00,
2013-08-07 10:35:00,65.6,54.8,29.94,West,270,0.0,3.0,68,0.00,,,0.00,WeatherCatV1.15B25,2013-08-07 17:35:00,
2013-08-07 10:40:00,65.6,54.8,29.94,West,270,0.0,3.0,68,0.00,,,0.00,WeatherCatV1.15B25,2013-08-07 17:40:00,
2013-08-07 10:45:00,65.6,54.8,29.94,West,270,0.0,3.0,68,0.00,,,0.00,WeatherCatV1.15B25,2013-08-07 17:45:00,
2013-08-07 10:50:00,65.6,54.8,29.94,West,270,0.0,3.0,68,0.00,,,0.00,WeatherCatV1.15B25,2013-08-07 17:50:00,
2013-08-07 10:55:00,65.6,54.8,29.94,West,270,0.0,3.0,68,0.00,,,0.00,WeatherCatV1.15B25,2013-08-07 17:55:00,
2013-08-07 11:00:00,65.6,54.8,29.94,West,270,0.0,3.0,68,0.00,,,0.00,WeatherCatV1.15B25,2013-08-07 18:00:00,
2013-08-07 11:05:00,65.6,54.8,29.94,West,270,0.0,3.0,68,0.00,,,0.00,WeatherCatV1.15B25,2013-08-07 18:05:00,
2013-08-07 11:10:00,65.6,54.8,29.94,West,270,0.0,3.0,68,0.00,,,0.00,WeatherCatV1.15B25,2013-08-07 18:10:00,
2013-08-07 11:15:00,65.6,54.8,29.94,West,270,0.0,3.0,68,0.00,,,0.00,WeatherCatV1.15B25,2013-08-07 18:15:00,
2013-08-07 11:20:00,65.6,54.8,29.94,West,270,0.0,3.0,68,0.00,,,0.00,WeatherCatV1.15B25,2013-08-07 18:20:00,
2013-08-07 11:25:00,65.6,54.8,29.94,West,270,0.0,3.0,68,0.00,,,0.00,WeatherCatV1.15B25,2013-08-07 18:25:00,
2013-08-07 11:30:00,72.2,55.1,29.95,West,270,1.0,4.0,55,0.00,,,0.00,WeatherCatV1.15B25,2013-08-07 18:30:00,
2013-08-07 11:35:00,72.2,55.1,29.95,West,270,1.0,4.0,55,0.00,,,0.00,WeatherCatV1.15B25,2013-08-07 18:35:00,
2013-08-07 11:40:00,72.2,55.1,29.95,West,270,1.0,4.0,55,0.00,,,0.00,WeatherCatV1.15B25,2013-08-07 18:40:00,
2013-08-07 11:45:00,72.2,55.1,29.95,West,270,1.0,4.0,55,0.00,,,0.00,WeatherCatV1.15B25,2013-08-07 18:45:00,
2013-08-07 11:50:00,72.2,55.1,29.95,West,270,1.0,4.0,55,0.00,,,0.00,WeatherCatV1.15B25,2013-08-07 18:50:00,
2013-08-07 11:55:00,72.2,55.1,29.95,West,270,1.0,4.0,55,0.00,,,0.00,WeatherCatV1.15B25,2013-08-07 18:55:00,
2013-08-07 12:00:00,72.2,55.1,29.95,West,270,1.0,4.0,55,0.00,,,0.00,WeatherCatV1.15B25,2013-08-07 19:00:00,
2013-08-07 12:05:00,72.2,55.1,29.95,West,270,1.0,4.0,55,0.00,,,0.00,WeatherCatV1.15B25,2013-08-07 19:05:00,
2013-08-07 12:10:00,72.2,55.1,29.95,West,270,1.0,4.0,55,0.00,,,0.00,WeatherCatV1.15B25,2013-08-07 19:10:00,
2013-08-07 12:15:00,72.2,55.1,29.95,West,270,1.0,4.0,55,0.00,,,0.00,WeatherCatV1.15B25,2013-08-07 19:15:00,
2013-08-07 12:20:00,72.2,55.1,29.95,West,270,1.0,4.0,55,0.00,,,0.00,WeatherCatV1.15B25,2013-08-07 19:20:00,
2013-08-07 12:25:00,72.2,55.1,29.95,West,270,1.0,4.0,55,0.00,,,0.00,WeatherCatV1.15B25,2013-08-07 19:25:00,
2013-08-07 12:30:00,72.2,55.1,29.95,West,270,1.0,4.0,55,0.00,,,0.00,WeatherCatV1.15B25,2013-08-07 19:30:00,
2013-08-07 12:35:00,74.9,53.9,29.95,West,270,1.0,5.0,48,0.00,,,0.00,WeatherCatV1.15B25,2013-08-07 19:35:00,
2013-08-07 12:40:00,74.9,53.9,29.95,West,270,1.0,5.0,48,0.00,,,0.00,WeatherCatV1.15B25,2013-08-07 19:40:00,
2013-08-07 12:45:00,74.9,53.9,29.95,West,270,1.0,5.0,48,0.00,,,0.00,WeatherCatV1.15B25,2013-08-07 19:45:00,
2013-08-07 12:50:00,74.9,53.9,29.95,West,270,1.0,5.0,48,0.00,,,0.00,WeatherCatV1.15B25,2013-08-07 19:50:00,
2013-08-07 12:55:00,74.9,53.9,29.95,West,270,1.0,5.0,48,0.00,,,0.00,WeatherCatV1.15B25,2013-08-07 19:55:00,
2013-08-07 13:00:00,74.9,53.9,29.95,West,270,1.0,5.0,48,0.00,,,0.00,WeatherCatV1.15B25,2013-08-07 20:00:00,
2013-08-07 13:05:00,74.9,53.9,29.95,West,270,1.0,5.0,48,0.00,,,0.00,WeatherCatV1.15B25,2013-08-07 20:05:00,
2013-08-07 13:10:00,74.9,53.9,29.95,West,270,1.0,5.0,48,0.00,,,0.00,WeatherCatV1.15B25,2013-08-07 20:10:00,
2013-08-07 13:15:00,74.9,53.9,29.95,West,270,1.0,5.0,48,0.00,,,0.00,WeatherCatV1.15B25,2013-08-07 20:15:00,
2013-08-07 13:20:00,74.9,53.9,29.95,West,270,1.0,5.0,48,0.00,,,0.00,WeatherCatV1.15B25,2013-08-07 20:20:00,
2013-08-07 13:25:00,74.9,53.9,29.95,West,270,1.0,5.0,48,0.00,,,0.00,WeatherCatV1.15B25,2013-08-07 20:25:00,
2013-08-07 13:30:00,74.9,53.9,29.95,West,270,1.0,5.0,48,0.00,,,0.00,WeatherCatV1.15B25,2013-08-07 20:30:00,
2013-08-07 13:35:00,77.6,53.3,29.95,West,270,2.0,6.0,43,0.00,,,0.00,WeatherCatV1.15B25,2013-08-07 20:35:00,
2013-08-07 13:40:00,77.6,53.3,29.95,West,270,2.0,6.0,43,0.00,,,0.00,WeatherCatV1.15B25,2013-08-07 20:40:00,
2013-08-07 13:45:00,77.6,53.3,29.95,West,270,2.0,6.0,43,0.00,,,0.00,WeatherCatV1.15B25,2013-08-07 20:45:00,
2013-08-07 13:50:00,77.6,53.3,29.95,West,270,2.0,6.0,43,0.00,,,0.00,WeatherCatV1.15B25,2013-08-07 20:50:00,
2013-08-07 13:55:00,77.6,53.3,29.95,West,270,2.0,6.0,43,0.00,,,0.00,WeatherCatV1.15B25,2013-08-07 20:55:00,
2013-08-07 14:00:00,77.6,53.3,29.95,West,270,2.0,6.0,43,0.00,,,0.00,WeatherCatV1.15B25,2013-08-07 21:00:00,
2013-08-07 14:05:00,77.6,53.3,29.95,West,270,2.0,6.0,43,0.00,,,0.00,WeatherCatV1.15B25,2013-08-07 21:05:00,
2013-08-07 14:10:00,77.6,53.3,29.95,West,270,2.0,6.0,43,0.00,,,0.00,WeatherCatV1.15B25,2013-08-07 21:10:00,
2013-08-07 14:15:00,77.6,53.3,29.95,West,270,2.0,6.0,43,0.00,,,0.00,WeatherCatV1.15B25,2013-08-07 21:15:00,
2013-08-07 14:20:00,77.6,53.3,29.95,West,270,2.0,6.0,43,0.00,,,0.00,WeatherCatV1.15B25,2013-08-07 21:20:00,
2013-08-07 14:25:00,77.6,53.3,29.95,West,270,2.0,6.0,43,0.00,,,0.00,WeatherCatV1.15B25,2013-08-07 21:25:00,
2013-08-07 14:30:00,80.4,51.0,29.95,West,270,1.0,5.0,36,0.00,,,0.00,WeatherCatV1.15B25,2013-08-07 21:30:00,
2013-08-07 14:35:00,80.4,51.0,29.95,West,270,1.0,5.0,36,0.00,,,0.00,WeatherCatV1.15B25,2013-08-07 21:35:00,
2013-08-07 14:40:00,80.4,51.0,29.95,West,270,1.0,5.0,36,0.00,,,0.00,WeatherCatV1.15B25,2013-08-07 21:40:00,
2013-08-07 14:45:00,80.4,51.0,29.95,West,270,1.0,5.0,36,0.00,,,0.00,WeatherCatV1.15B25,2013-08-07 21:45:00,
2013-08-07 14:50:00,80.4,51.0,29.95,West,270,1.0,5.0,36,0.00,,,0.00,WeatherCatV1.15B25,2013-08-07 21:50:00,
2013-08-07 14:55:00,80.4,51.0,29.95,West,270,1.0,5.0,36,0.00,,,0.00,WeatherCatV1.15B25,2013-08-07 21:55:00,
2013-08-07 15:00:00,80.4,51.0,29.95,West,270,1.0,5.0,36,0.00,,,0.00,WeatherCatV1.15B25,2013-08-07 22:00:00,
2013-08-07 15:05:00,80.4,51.0,29.95,West,270,1.0,5.0,36,0.00,,,0.00,WeatherCatV1.15B25,2013-08-07 22:05:00,
2013-08-07 15:10:00,80.4,51.0,29.95,West,270,1.0,5.0,36,0.00,,,0.00,WeatherCatV1.15B25,2013-08-07 22:10:00,
2013-08-07 15:15:00,80.4,51.0,29.95,West,270,1.0,5.0,36,0.00,,,0.00,WeatherCatV1.15B25,2013-08-07 22:15:00,
2013-08-07 15:20:00,80.4,51.0,29.95,West,270,1.0,5.0,36,0.00,,,0.00,WeatherCatV1.15B25,2013-08-07 22:20:00,
2013-08-07 15:25:00,80.4,51.0,29.95,West,270,1.0,5.0,36,0.00,,,0.00,WeatherCatV1.15B25,2013-08-07 22:25:00,
2013-08-07 15:30:00,80.4,51.0,29.95,West,270,1.0,5.0,36,0.00,,,0.00,WeatherCatV1.15B25,2013-08-07 22:30:00,
2013-08-07 15:35:00,79.0,49.0,29.94,SE,135,1.0,5.0,35,0.00,,,0.00,WeatherCatV1.15B25,2013-08-07 22:35:00,
2013-08-07 15:40:00,79.0,49.0,29.94,SE,135,1.0,5.0,35,0.00,,,0.00,WeatherCatV1.15B25,2013-08-07 22:40:00,
2013-08-07 15:45:00,79.0,49.0,29.94,SE,135,1.0,5.0,35,0.00,,,0.00,WeatherCatV1.15B25,2013-08-07 22:45:00,
2013-08-07 15:50:00,79.0,49.0,29.94,SE,135,1.0,5.0,35,0.00,,,0.00,WeatherCatV1.15B25,2013-08-07 22:50:00,
2013-08-07 15:55:00,79.0,49.0,29.94,SE,135,1.0,5.0,35,0.00,,,0.00,WeatherCatV1.15B25,2013-08-07 22:55:00,
2013-08-07 16:00:00,79.0,49.0,29.94,SE,135,1.0,5.0,35,0.00,,,0.00,WeatherCatV1.15B25,2013-08-07 23:00:00,
2013-08-07 16:05:00,79.0,49.0,29.94,SE,135,1.0,5.0,35,0.00,,,0.00,WeatherCatV1.15B25,2013-08-07 23:05:00,
2013-08-07 16:10:00,79.0,49.0,29.94,SE,135,1.0,5.0,35,0.00,,,0.00,WeatherCatV1.15B25,2013-08-07 23:10:00,
2013-08-07 16:15:00,79.0,49.0,29.94,SE,135,1.0,5.0,35,0.00,,,0.00,WeatherCatV1.15B25,2013-08-07 23:15:00,
2013-08-07 16:20:00,79.0,49.0,29.94,SE,135,1.0,5.0,35,0.00,,,0.00,WeatherCatV1.15B25,2013-08-07 23:20:00,
2013-08-07 16:25:00,79.0,49.0,29.94,SE,135,1.0,5.0,35,0.00,,,0.00,WeatherCatV1.15B25,2013-08-07 23:25:00,
2013-08-07 16:30:00,79.2,45.9,29.93,SE,137,1.0,1.0,31,0.00,,,0.00,WeatherCatV1.15B25,2013-08-07 23:30:00,
2013-08-07 16:43:00,79.5,45.3,29.93,SSE,160,1.0,3.0,30,0.00,,,0.00,WeatherCatV1.15B25,2013-08-07 23:43:00,
2013-08-07 16:48:00,77.2,47.4,29.92,WSW,258,0.0,1.0,35,0.00,,,0.00,WeatherCatV1.15B25,2013-08-07 23:48:00,
2013-08-07 16:53:00,77.7,47.8,29.93,West,274,0.0,3.0,35,0.00,,,0.00,WeatherCatV1.15B25,2013-08-07 23:53:00,
2013-08-07 16:58:00,77.6,47.8,29.92,SW,236,3.0,3.0,35,0.00,,,0.00,WeatherCatV1.15B25,2013-08-07 23:58:00,
2013-08-07 17:04:00,77.7,47.1,29.92,SE,127,0.0,1.0,34,0.00,,,0.00,WeatherCatV1.15B25,2013-08-08 00:04:00,
2013-08-07 17:09:00,77.5,47.7,29.92,West,276,0.0,2.0,35,0.00,,,0.00,WeatherCatV1.15B25,2013-08-08 00:09:00,
2013-08-07 17:14:00,76.8,47.8,29.92,West,269,2.0,3.0,36,0.00,,,0.00,WeatherCatV1.15B25,2013-08-08 00:14:00,
2013-08-07 17:19:00,76.5,46.8,29.92,WSW,249,1.0,2.0,35,0.00,,,0.00,WeatherCatV1.15B25,2013-08-08 00:19:00,
2013-08-07 17:24:00,76.2,48.0,29.92,West,269,4.0,4.0,37,0.00,,,0.00,WeatherCatV1.15B25,2013-08-08 00:24:00,
2013-08-07 17:29:00,76.0,47.8,29.92,WSW,257,2.0,3.0,37,0.00,,,0.00,WeatherCatV1.15B25,2013-08-08 00:29:00,
2013-08-07 17:34:00,76.0,48.5,29.92,WSW,253,4.0,4.0,38,0.00,,,0.00,WeatherCatV1.15B25,2013-08-08 00:34:00,
2013-08-07 17:39:00,76.0,48.5,29.92,West,261,1.0,3.0,38,0.00,,,0.00,WeatherCatV1.15B25,2013-08-08 00:39:00,
2013-08-07 17:44:00,75.9,49.1,29.92,SSW,211,1.0,1.0,39,0.00,,,0.00,WeatherCatV1.15B25,2013-08-08 00:44:00,
2013-08-07 17:49:00,75.8,49.1,29.92,West,270,1.0,2.0,39,0.00,,,0.00,WeatherCatV1.15B25,2013-08-08 00:49:00,
2013-08-07 17:54:00,75.7,49.0,29.92,West,267,0.0,3.0,39,0.00,,,0.00,WeatherCatV1.15B25,2013-08-08 00:54:00,
2013-08-07 17:59:00,75.7,49.0,29.92,West,260,1.0,2.0,39,0.00,,,0.00,WeatherCatV1.15B25,2013-08-08 00:59:00,
2013-08-07 18:04:00,75.7,49.0,29.92,WSW,248,0.0,2.0,39,0.00,,,0.00,WeatherCatV1.15B25,2013-08-08 01:04:00,
2013-08-07 18:09:00,75.6,48.9,29.92,West,262,0.0,2.0,39,0.00,,,0.00,WeatherCatV1.15B25,2013-08-08 01:09:00,
2013-08-07 18:14:00,75.3,49.3,29.92,West,263,1.0,2.0,40,0.00,,,0.00,WeatherCatV1.15B25,2013-08-08 01:14:00,
2013-08-07 18:19:00,75.2,48.5,29.92,SE,134,0.0,2.0,39,0.00,,,0.00,WeatherCatV1.15B25,2013-08-08 01:19:00,
2013-08-07 18:24:00,75.2,49.9,29.91,WSW,252,1.0,2.0,41,0.00,,,0.00,WeatherCatV1.15B25,2013-08-08 01:24:00,
2013-08-07 18:29:00,75.1,49.1,29.91,WSW,237,2.0,2.0,40,0.00,,,0.00,WeatherCatV1.15B25,2013-08-08 01:29:00,
2013-08-07 18:34:00,75.0,48.3,29.91,West,266,0.0,4.0,39,0.00,,,0.00,WeatherCatV1.15B25,2013-08-08 01:34:00,
2013-08-07 18:39:00,74.8,49.5,29.91,WSW,252,3.0,3.0,41,0.00,,,0.00,WeatherCatV1.15B25,2013-08-08 01:39:00,
2013-08-07 18:44:00,74.6,49.3,29.91,SSE,150,1.0,2.0,41,0.00,,,0.00,WeatherCatV1.15B25,2013-08-08 01:44:00,
2013-08-07 18:49:00,74.3,49.7,29.91,WSW,257,0.0,1.0,42,0.00,,,0.00,WeatherCatV1.15B25,2013-08-08 01:49:00,
2013-08-07 18:54:00,74.0,50.1,29.91,South,190,0.0,1.0,43,0.00,,,0.00,WeatherCatV1.15B25,2013-08-08 01:54:00,
2013-08-07 18:59:00,73.9,50.0,29.91,West,262,0.0,1.0,43,0.00,,,0.00,WeatherCatV1.15B25,2013-08-08 01:59:00,
2013-08-07 19:04:00,73.7,50.4,29.91,WSW,237,0.0,0.0,44,0.00,,,0.00,WeatherCatV1.15B25,2013-08-08 02:04:00,
2013-08-07 19:09:00,73.4,49.5,29.92,SW,231,0.0,2.0,43,0.00,,,0.00,WeatherCatV1.15B25,2013-08-08 02:09:00,
2013-08-07 19:14:00,73.1,49.3,29.92,WSW,257,0.0,2.0,43,0.00,,,0.00,WeatherCatV1.15B25,2013-08-08 02:14:00,
2013-08-07 19:19:00,72.9,50.9,29.92,WSW,257,0.0,1.0,46,0.00,,,0.00,WeatherCatV1.15B25,2013-08-08 02:19:00,
2013-08-07 19:24:00,72.7,50.1,29.92,WSW,257,0.0,1.0,45,0.00,,,0.00,WeatherCatV1.15B25,2013-08-08 02:24:00,
2013-08-07 19:29:00,72.6,50.0,29.92,WSW,257,0.0,1.0,45,0.00,,,0.00,WeatherCatV1.15B25,2013-08-08 02:29:00,
2013-08-07 19:34:00,72.4,49.2,29.92,South,186,0.0,1.0,44,0.00,,,0.00,WeatherCatV1.15B25,2013-08-08 02:34:00,
2013-08-07 19:39:00,72.1,50.2,29.92,South,186,0.0,0.0,46,0.00,,,0.00,WeatherCatV1.15B25,2013-08-08 02:39:00,
2013-08-07 19:44:00,71.9,50.6,29.92,SSW,193,0.0,0.0,47,0.00,,,0.00,WeatherCatV1.15B25,2013-08-08 02:44:00,
2013-08-07 19:49:00,71.5,50.2,29.92,SSW,193,0.0,0.0,47,0.00,,,0.00,WeatherCatV1.15B25,2013-08-08 02:49:00,
2013-08-07 19:54:00,71.1,50.4,29.92,South,191,0.0,0.0,48,0.00,,,0.00,WeatherCatV1.15B25,2013-08-08 02:54:00,
2013-08-07 19:59:00,70.7,51.1,29.92,South,191,0.0,0.0,50,0.00,,,0.00,WeatherCatV1.15B25,2013-08-08 02:59:00,
2013-08-07 20:04:00,70.3,51.3,29.92,South,191,0.0,0.0,51,0.00,,,0.00,WeatherCatV1.15B25,2013-08-08 03:04:00,
2013-08-07 20:09:00,69.8,51.4,29.91,SSW,192,0.0,0.0,52,0.00,,,0.00,WeatherCatV1.15B25,2013-08-08 03:09:00,
2013-08-07 20:14:00,69.2,51.8,29.92,South,191,0.0,0.0,54,0.00,,,0.00,WeatherCatV1.15B25,2013-08-08 03:14:00,
2013-08-07 20:19:00,68.8,52.5,29.92,South,191,0.0,0.0,56,0.00,,,0.00,WeatherCatV1.15B25,2013-08-08 03:19:00,
2013-08-07 20:24:00,68.4,52.6,29.92,South,191,0.0,0.0,57,0.00,,,0.00,WeatherCatV1.15B25,2013-08-08 03:24:00,
2013-08-07 20:29:00,68.0,53.1,29.92,SSW,192,0.0,0.0,59,0.00,,,0.00,WeatherCatV1.15B25,2013-08-08 03:29:00,
2013-08-07 20:34:00,67.6,53.2,29.92,SSW,192,0.0,0.0,60,0.00,,,0.00,WeatherCatV1.15B25,2013-08-08 03:34:00,
2013-08-07 20:39:00,67.2,53.3,29.92,SSW,192,0.0,0.0,61,0.00,,,0.00,WeatherCatV1.15B25,2013-08-08 03:39:00,
2013-08-07 20:44:00,67.0,53.5,29.92,South,191,0.0,0.0,62,0.00,,,0.00,WeatherCatV1.15B25,2013-08-08 03:44:00,
2013-08-07 20:49:00,66.7,53.7,29.92,South,191,0.0,0.0,63,0.00,,,0.00,WeatherCatV1.15B25,2013-08-08 03:49:00,
2013-08-07 20:54:00,66.4,53.0,29.92,SSW,192,0.0,0.0,62,0.00,,,0.00,WeatherCatV1.15B25,2013-08-08 03:54:00,
2013-08-07 20:59:00,66.1,53.6,29.92,South,191,0.0,0.0,64,0.00,,,0.00,WeatherCatV1.15B25,2013-08-08 03:59:00,
2013-08-07 21:01:00,66.0,53.9,29.92,SSW,192,0.0,0.0,65,0.00,,,0.00,WeatherCatV1.15B25,2013-08-08 04:01:00,
2013-08-07 21:06:00,65.7,53.2,29.92,South,191,0.0,0.0,64,0.00,,,0.00,WeatherCatV1.15B25,2013-08-08 04:06:00,
2013-08-07 21:11:00,65.3,53.2,29.92,SSW,192,0.0,0.0,65,0.00,,,0.00,WeatherCatV1.15B25,2013-08-08 04:11:00,
2013-08-07 21:16:00,65.1,53.0,29.92,SSW,192,0.0,0.0,65,0.00,,,0.00,WeatherCatV1.15B25,2013-08-08 04:16:00,
2013-08-07 21:21:00,64.8,52.8,29.93,SSW,192,0.0,0.0,65,0.00,,,0.00,WeatherCatV1.15B25,2013-08-08 04:21:00,
2013-08-07 21:26:00,64.4,53.2,29.93,SSW,192,0.0,0.0,67,0.00,,,0.00,WeatherCatV1.15B25,2013-08-08 04:26:00,
2013-08-07 21:31:00,63.9,53.1,29.93,South,191,0.0,0.0,68,0.00,,,0.00,WeatherCatV1.15B25,2013-08-08 04:31:00,
2013-08-07 21:36:00,63.5,53.1,29.93,South,191,0.0,0.0,69,0.00,,,0.00,WeatherCatV1.15B25,2013-08-08 04:36:00,
2013-08-07 21:41:00,63.2,52.9,29.93,South,191,0.0,0.0,69,0.00,,,0.00,WeatherCatV1.15B25,2013-08-08 04:41:00,
2013-08-07 21:46:00,62.9,52.6,29.93,South,191,0.0,0.0,69,0.00,,,0.00,WeatherCatV1.15B25,2013-08-08 04:46:00,
2013-08-07 21:51:00,62.6,52.7,29.93,South,191,0.0,0.0,70,0.00,,,0.00,WeatherCatV1.15B25,2013-08-08 04:51:00,
2013-08-07 21:56:00,62.3,52.8,29.93,South,191,0.0,0.0,71,0.00,,,0.00,WeatherCatV1.15B25,2013-08-08 04:56:00,
2013-08-07 22:01:00,62.1,53.0,29.93,South,191,0.0,0.0,72,0.00,,,0.00,WeatherCatV1.15B25,2013-08-08 05:01:00,
2013-08-07 22:06:00,62.0,52.9,29.93,South,191,0.0,0.0,72,0.00,,,0.00,WeatherCatV1.15B25,2013-08-08 05:06:00,
2013-08-07 22:11:00,61.7,52.2,29.93,South,191,0.0,0.0,71,0.00,,,0.00,WeatherCatV1.15B25,2013-08-08 05:11:00,
2013-08-07 22:16:00,61.5,52.4,29.93,South,191,0.0,0.0,72,0.00,,,0.00,WeatherCatV1.15B25,2013-08-08 05:16:00,
2013-08-07 22:21:00,61.3,52.2,29.93,South,191,0.0,0.0,72,0.00,,,0.00,WeatherCatV1.15B25,2013-08-08 05:21:00,
2013-08-07 22:26:00,61.1,52.4,29.93,South,191,0.0,0.0,73,0.00,,,0.00,WeatherCatV1.15B25,2013-08-08 05:26:00,
2013-08-07 22:30:00,60.9,52.2,29.93,South,191,0.0,0.0,73,0.00,,,0.00,WeatherCatV1.15B25,2013-08-08 05:30:00,
2013-08-07 22:35:00,60.7,52.4,29.93,South,191,0.0,0.0,74,0.00,,,0.00,WeatherCatV1.15B25,2013-08-08 05:35:00,
2013-08-07 22:40:00,60.5,52.5,29.93,South,191,0.0,0.0,75,0.00,,,0.00,WeatherCatV1.15B25,2013-08-08 05:40:00,
2013-08-07 22:45:00,60.5,52.5,29.93,South,191,0.0,0.0,75,0.00,,,0.00,WeatherCatV1.15B25,2013-08-08 05:45:00,
2013-08-07 22:50:00,60.5,52.2,29.93,South,191,0.0,0.0,74,0.00,,,0.00,WeatherCatV1.15B25,2013-08-08 05:50:00,
2013-08-07 22:55:00,60.2,51.9,29.93,South,191,0.0,0.0,74,0.00,,,0.00,WeatherCatV1.15B25,2013-08-08 05:55:00,
2013-08-07 23:00:00,60.0,52.4,29.93,South,191,0.0,0.0,76,0.00,,,0.00,WeatherCatV1.15B25,2013-08-08 06:00:00,
2013-08-07 23:05:00,60.1,52.1,29.93,South,191,0.0,0.0,75,0.00,,,0.00,WeatherCatV1.15B25,2013-08-08 06:05:00,
2013-08-07 23:10:00,60.2,52.2,29.93,South,191,0.0,0.0,75,0.00,,,0.00,WeatherCatV1.15B25,2013-08-08 06:10:00,
2013-08-07 23:15:00,60.2,52.2,29.93,South,191,0.0,0.0,75,0.00,,,0.00,WeatherCatV1.15B25,2013-08-08 06:15:00,
2013-08-07 23:20:00,60.1,52.5,29.93,South,191,0.0,0.0,76,0.00,,,0.00,WeatherCatV1.15B25,2013-08-08 06:20:00,
2013-08-07 23:25:00,60.0,52.4,29.93,South,191,0.0,0.0,76,0.00,,,0.00,WeatherCatV1.15B25,2013-08-08 06:25:00,
2013-08-07 23:30:00,60.2,52.2,29.93,South,191,0.0,0.0,75,0.00,,,0.00,WeatherCatV1.15B25,2013-08-08 06:30:00,
2013-08-07 23:35:00,60.3,52.3,29.93,South,191,0.0,0.0,75,0.00,,,0.00,WeatherCatV1.15B25,2013-08-08 06:35:00,
2013-08-07 23:40:00,60.3,52.3,29.93,South,191,0.0,0.0,75,0.00,,,0.00,WeatherCatV1.15B25,2013-08-08 06:40:00,
2013-08-07 23:45:00,60.2,52.2,29.93,South,191,0.0,0.0,75,0.00,,,0.00,WeatherCatV1.15B25,2013-08-08 06:45:00,
2013-08-07 23:50:00,60.1,52.1,29.93,South,191,0.0,0.0,75,0.00,,,0.00,WeatherCatV1.15B25,2013-08-08 06:50:00,
2013-08-07 23:55:00,59.7,51.4,29.93,South,191,0.0,0.0,74,0.00,,,0.00,WeatherCatV1.15B25,2013-08-08 06:55:00,